Location: Montclair
(37.8322°N, 122.2092°W)
Time: 15:40:17
(UTC+00:00)

Cosmos 1833 - Pass Details

Date: 08 September 2024
Orbit: 830 x 868 km, 70.9° (Epoch: 08 October)

Event Time Altitude Azimuth Distance (km) Brightness Sun altitude
Exits shadow 12:10:45 16° 195° (SSW) 2,048 5.9 -18.8°
Maximum altitude 12:15:17 78° 111° (ESE) 869 4.3 -18.0°
Drops below altitude 10° 12:21:01 10° 25° (NNE) 2,492 7.3 -16.9°
Sets 12:23:29 0° 24° (NNE) 3,437 8.1 -16.5°
